,,,PA_Meas_PMT16A,,PR_Meas_QMR101_102,,RH_Meas_QMH101,,SR_Meas_QMS101,,TA_Meas_QMH101,,GenWind,,GenWind,
date,time,status,PA,status,PR,status,RH,status,SR,status,TA,status,DirAvg,status,SpdAvg,
2008-09-27, 00:00:04,VALID,1006.43,VALID,0,VALID,86.5268,VALID,0,VALID,24.4257,VALID,289,VALID,2.29219,
2008-09-27, 00:01:04,VALID,1006.43,VALID,0,VALID,86.069,VALID,0,VALID,24.4062,VALID,287,VALID,2.47461,
2008-09-27, 00:02:04,VALID,1006.38,VALID,0,VALID,86.3284,VALID,0,VALID,24.4257,VALID,299,VALID,1.00312,
2008-09-27, 00:03:04,VALID,1006.43,VALID,0,VALID,85.7639,VALID,0,VALID,24.4062,VALID,294,VALID,2.83047,
2008-09-27, 00:04:04,VALID,1006.41,VALID,0,VALID,86.0309,VALID,0,VALID,24.4257,VALID,288,VALID,1.63242,
2008-09-27, 00:05:04,VALID,1006.4,VALID,0,VALID,85.802,VALID,0,VALID,24.3654,VALID,278,VALID,2.12578,
2008-09-27, 00:06:04,VALID,1006.39,VALID,0,VALID,85.68,VALID,0,VALID,24.3867,VALID,324,VALID,0.499609,
2008-09-27, 00:07:04,VALID,1006.41,VALID,0,VALID,85.6952,VALID,0,VALID,24.3673,VALID,288,VALID,1.32031,
2008-09-27, 00:08:04,VALID,1006.36,VALID,0,VALID,85.9012,VALID,0,VALID,24.3478,VALID,285,VALID,0.702344,
2008-09-27, 00:09:04,VALID,1006.34,VALID,0,VALID,84.8866,VALID,0,VALID,24.2894,VALID,301,VALID,2.41641,
2008-09-27, 00:10:04,VALID,1006.33,VALID,0,VALID,85.0849,VALID,0,VALID,24.2894,VALID,281,VALID,1.65078,
2008-09-27, 00:11:04,VALID,1006.32,VALID,0,VALID,84.7111,VALID,0,VALID,24.2894,VALID,296,VALID,2.94219,
2008-09-27, 00:12:04,VALID,1006.3,VALID,0,VALID,84.6882,VALID,0,VALID,24.2894,VALID,287,VALID,2.75859,
2008-09-27, 00:13:04,VALID,1006.3,VALID,0,VALID,85.0086,VALID,0,VALID,24.2699,VALID,303,VALID,1.75195,
2008-09-27, 00:14:04,VALID,1006.31,VALID,0,VALID,85.2451,VALID,0,VALID,24.2504,VALID,273,VALID,0.806641,
2008-09-27, 00:15:04,VALID,1006.31,VALID,0,VALID,85.2756,VALID,0,VALID,24.2115,VALID,311,VALID,0.920313,
2008-09-27, 00:16:04,VALID,1006.37,VALID,0,VALID,85.207,VALID,0,VALID,24.1726,VALID,313,VALID,1.66367,
2008-09-27, 00:17:04,VALID,1006.34,VALID,0,VALID,85.4129,VALID,0,VALID,24.1726,VALID,271,VALID,0.836328,
2008-09-27, 00:18:04,VALID,1006.35,VALID,0,VALID,84.9857,VALID,0,VALID,24.1549,VALID,301,VALID,2.15586,
2008-09-27, 00:19:04,VALID,1006.35,VALID,0,VALID,85.0849,VALID,0,VALID,24.1336,VALID,294,VALID,1.9543,
2008-09-27, 00:20:04,VALID,1006.33,VALID,0,VALID,84.6043,VALID,0,VALID,24.1336,VALID,287,VALID,1.8957,
2008-09-27, 00:21:04,VALID,1006.34,VALID,0,VALID,84.5661,VALID,0,VALID,24.1531,VALID,287,VALID,1.27031,
2008-09-27, 00:22:04,VALID,1006.3,VALID,0,VALID,85.001,VALID,0,VALID,24.1726,VALID,300,VALID,1.01133,
2008-09-27, 00:23:04,VALID,1006.28,VALID,0,VALID,84.8103,VALID,0,VALID,24.1726,VALID,288,VALID,1.59375,
2008-09-27, 00:24:04,VALID,1006.3,VALID,0,VALID,84.9781,VALID,0,VALID,24.1726,VALID,284,VALID,1.40586,
2008-09-27, 00:25:04,VALID,1006.2,VALID,0,VALID,84.4593,VALID,0,VALID,24.1531,VALID,286,VALID,2.76133,
2008-09-27, 00:26:04,VALID,1006.26,VALID,0,VALID,84.6577,VALID,0,VALID,24.1513,VALID,290,VALID,1.6957,
2008-09-27, 00:27:04,VALID,1006.25,VALID,0,VALID,84.9705,VALID,0,VALID,24.1726,VALID,300,VALID,1.30938,
2008-09-27, 00:28:04,VALID,1006.22,VALID,0,VALID,84.7797,VALID,0,VALID,24.1513,VALID,313,VALID,1.52148,
2008-09-27, 00:29:04,VALID,1006.16,VALID,0,VALID,84.1237,VALID,0,VALID,24.1531,VALID,290,VALID,2.00742,
2008-09-27, 00:30:04,VALID,1006.14,VALID,0,VALID,84.467,VALID,0,VALID,24.1726,VALID,291,VALID,2.63281,
2008-09-27, 00:31:04,VALID,1006.08,VALID,0,VALID,84.2686,VALID,0,VALID,24.1726,VALID,276,VALID,1.78047,
2008-09-27, 00:32:04,VALID,1006.06,VALID,0,VALID,84.5585,VALID,0,VALID,24.1513,VALID,295,VALID,1.04531,
2008-09-27, 00:33:04,VALID,1006.01,VALID,0,VALID,84.4212,VALID,0,VALID,24.1726,VALID,327,VALID,1.27266,
2008-09-27, 00:34:04,VALID,1005.99,VALID,0,VALID,83.8033,VALID,0,VALID,24.1336,VALID,287,VALID,3.59727,
2008-09-27, 00:35:04,VALID,1006.04,VALID,0,VALID,84.1466,VALID,0,VALID,24.1531,VALID,281,VALID,1.15508,
2008-09-27, 00:36:04,VALID,1005.97,VALID,0,VALID,83.3303,VALID,0,VALID,24.1531,VALID,293,VALID,2.52617,
2008-09-27, 00:37:04,VALID,1005.97,VALID,0,VALID,83.6812,VALID,0,VALID,24.1531,VALID,302,VALID,1.33984,
2008-09-27, 00:38:04,VALID,1005.96,VALID,0,VALID,83.2769,VALID,0,VALID,24.1123,VALID,293,VALID,2.7875,
2008-09-27, 00:39:04,VALID,1005.9,VALID,0,VALID,83.2463,VALID,0,VALID,24.1336,VALID,322,VALID,2.48789,
2008-09-27, 00:40:04,VALID,1005.94,VALID,0,VALID,83.315,VALID,0,VALID,24.1318,VALID,291,VALID,1.41484,
2008-09-27, 00:41:04,VALID,1005.9,VALID,0,VALID,82.6589,VALID,0,VALID,24.1123,VALID,299,VALID,2.80625,
2008-09-27, 00:42:04,VALID,1005.92,VALID,0,VALID,82.9183,VALID,0,VALID,24.1336,VALID,299,VALID,1.54414,
2008-09-27, 00:43:04,VALID,1005.93,VALID,0,VALID,82.6437,VALID,0,VALID,24.1531,VALID,290,VALID,1.53945,
2008-09-27, 00:44:04,VALID,1005.94,VALID,0,VALID,82.5063,VALID,0,VALID,24.1531,VALID,296,VALID,2.1207,
2008-09-27, 00:45:04,VALID,1005.96,VALID,0,VALID,82.3538,VALID,0,VALID,24.1726,VALID,293,VALID,2.90586,
2008-09-27, 00:46:04,VALID,1005.97,VALID,0,VALID,82.6131,VALID,0,VALID,24.1726,VALID,333,VALID,0.486328,
2008-09-27, 00:47:04,VALID,1005.92,VALID,0,VALID,82.0333,VALID,0,VALID,24.1531,VALID,304,VALID,3.26602,
2008-09-27, 00:48:04,VALID,1005.94,VALID,0,VALID,82.1402,VALID,0,VALID,24.1513,VALID,284,VALID,3.12539,
2008-09-27, 00:49:04,VALID,1005.9,VALID,0,VALID,82.4377,VALID,0,VALID,24.1707,VALID,297,VALID,2.53086,
2008-09-27, 00:50:04,VALID,1005.92,VALID,0,VALID,82.6589,VALID,0,VALID,24.192,VALID,313,VALID,0.980859,
2008-09-27, 00:51:04,VALID,1005.92,VALID,0,VALID,82.7047,VALID,0,VALID,24.1726,VALID,304,VALID,1.23008,
2008-09-27, 00:52:04,VALID,1005.88,VALID,0,VALID,82.6818,VALID,0,VALID,24.1531,VALID,295,VALID,1.62461,
2008-09-27, 00:53:04,VALID,1005.9,VALID,0,VALID,82.7657,VALID,0,VALID,24.1531,VALID,279,VALID,2.6,
2008-09-27, 00:54:04,VALID,1005.83,VALID,0,VALID,82.6665,VALID,0,VALID,24.1336,VALID,286,VALID,2.63516,
2008-09-27, 00:55:04,VALID,1005.82,VALID,0,VALID,83.0938,VALID,0,VALID,24.1531,VALID,296,VALID,1.05117,
2008-09-27, 00:56:04,VALID,1005.75,VALID,0,VALID,82.9107,VALID,0,VALID,24.0929,VALID,293,VALID,2.04609,
2008-09-27, 00:57:04,VALID,1005.76,VALID,0,VALID,83.1701,VALID,0,VALID,24.0929,VALID,281,VALID,1.20234,
2008-09-27, 00:58:04,VALID,1005.72,VALID,0,VALID,83.4981,VALID,0,VALID,24.0539,VALID,298,VALID,0.635938,
2008-09-27, 00:59:04,VALID,1005.68,VALID,0,VALID,83.521,VALID,0,VALID,24.0557,VALID,282,VALID,1.46836,
2008-09-27, 01:00:04,VALID,1005.69,VALID,0,VALID,83.6202,VALID,0,VALID,24.0168,VALID,295,VALID,1.44922,
2008-09-27, 01:01:04,VALID,1005.68,VALID,0,VALID,84.0016,VALID,0,VALID,23.9973,VALID,302,VALID,0.558594,
2008-09-27, 01:02:04,VALID,1005.7,VALID,0,VALID,84.1313,VALID,0,VALID,23.9779,VALID,305,VALID,0.667188,
2008-09-27, 01:03:04,VALID,1005.65,VALID,0,VALID,83.6583,VALID,0,VALID,23.9371,VALID,305,VALID,2.01094,
2008-09-27, 01:04:04,VALID,1005.69,VALID,0,VALID,83.6202,VALID,0,VALID,23.9177,VALID,289,VALID,2.35156,
2008-09-27, 01:05:04,VALID,1005.72,VALID,0,VALID,83.6202,VALID,0,VALID,23.9195,VALID,288,VALID,2.44492,
2008-09-27, 01:06:04,VALID,1005.69,VALID,0,VALID,83.7651,VALID,0,VALID,23.9,VALID,320,VALID,1.73047,
2008-09-27, 01:07:04,VALID,1005.67,VALID,0,VALID,83.6812,VALID,0,VALID,23.9,VALID,295,VALID,2.11367,
2008-09-27, 01:08:04,VALID,1005.69,VALID,0,VALID,83.8109,VALID,0,VALID,23.8593,VALID,303,VALID,1.65664,
2008-09-27, 01:09:04,VALID,1005.69,VALID,0,VALID,84.0321,VALID,0,VALID,23.8593,VALID,289,VALID,1.15586,
2008-09-27, 01:10:04,VALID,1005.66,VALID,0,VALID,84.0169,VALID,0,VALID,23.8398,VALID,293,VALID,2.24688,
2008-09-27, 01:11:04,VALID,1005.62,VALID,0,VALID,84.2915,VALID,0,VALID,23.8398,VALID,299,VALID,1.79141,
2008-09-27, 01:12:04,VALID,1005.58,VALID,0,VALID,84.6424,VALID,0,VALID,23.8009,VALID,303,VALID,0.642187,
2008-09-27, 01:13:04,VALID,1005.59,VALID,0,VALID,84.6272,VALID,0,VALID,23.7814,VALID,234,VALID,1.25898,
2008-09-27, 01:14:04,VALID,1005.6,VALID,0,VALID,84.7263,VALID,0,VALID,23.7814,VALID,295,VALID,2.17695,
2008-09-27, 01:15:04,VALID,1005.53,VALID,0,VALID,85.2222,VALID,0,VALID,23.7619,VALID,289,VALID,0.932813,
2008-09-27, 01:16:04,VALID,1005.52,VALID,0,VALID,85.3061,VALID,0,VALID,23.7425,VALID,275,VALID,0.922656,
2008-09-27, 01:17:04,VALID,1005.5,VALID,0,VALID,85.2451,VALID,0,VALID,23.7035,VALID,293,VALID,2.09687,
2008-09-27, 01:18:04,VALID,1005.49,VALID,0,VALID,85.4358,VALID,0.100563,VALID,23.6841,VALID,293,VALID,2.14687,
2008-09-27, 01:19:04,VALID,1005.52,VALID,0,VALID,85.7181,VALID,0,VALID,23.6841,VALID,294,VALID,1.01445,
2008-09-27, 01:20:04,VALID,1005.5,VALID,0,VALID,85.8249,VALID,0,VALID,23.6646,VALID,280,VALID,1.36953,
2008-09-27, 01:21:04,VALID,1005.5,VALID,0,VALID,85.8707,VALID,0,VALID,23.6452,VALID,308,VALID,1.68438,
2008-09-27, 01:22:04,VALID,1005.49,VALID,0,VALID,85.9622,VALID,0.100563,VALID,23.6044,VALID,296,VALID,2.20898,
2008-09-27, 01:23:04,VALID,1005.51,VALID,0,VALID,86.1606,VALID,0,VALID,23.6257,VALID,293,VALID,1.13789,
2008-09-27, 01:24:04,VALID,1005.48,VALID,0,VALID,86.336,VALID,0,VALID,23.608,VALID,313,VALID,0.646875,
2008-09-27, 01:25:04,VALID,1005.52,VALID,0,VALID,86.3818,VALID,0,VALID,23.5868,VALID,287,VALID,1.78633,
2008-09-27, 01:26:04,VALID,1005.51,VALID,0,VALID,86.5191,VALID,0,VALID,23.5868,VALID,294,VALID,0.701953,
2008-09-27, 01:27:04,VALID,1005.5,VALID,0,VALID,86.6717,VALID,0,VALID,23.608,VALID,293,VALID,1.73516,
2008-09-27, 01:28:04,VALID,1005.51,VALID,0,VALID,86.8014,VALID,0,VALID,23.608,VALID,295,VALID,1.49961,
2008-09-27, 01:29:04,VALID,1005.52,VALID,0,VALID,86.9235,VALID,0,VALID,23.5868,VALID,315,VALID,1.1207,
2008-09-27, 01:30:04,VALID,1005.49,VALID,0,VALID,86.8701,VALID,0,VALID,23.5868,VALID,298,VALID,1.83242,
2008-09-27, 01:31:04,VALID,1005.48,VALID,0,VALID,87.2134,VALID,0,VALID,23.5673,VALID,298,VALID,0.191016,
2008-09-27, 01:32:04,VALID,1005.49,VALID,0,VALID,87.1905,VALID,0,VALID,23.5691,VALID,296,VALID,1.08359,
2008-09-27, 01:33:04,VALID,1005.49,VALID,0,VALID,87.4651,VALID,0,VALID,23.5478,VALID,283,VALID,0.260156,
2008-09-27, 01:34:04,VALID,1005.46,VALID,0,VALID,87.488,VALID,0,VALID,23.5284,VALID,300,VALID,1.24141,
2008-09-27, 01:35:04,VALID,1005.44,VALID,0,VALID,87.816,VALID,0,VALID,23.5302,VALID,341,VALID,0.373828,
2008-09-27, 01:36:04,VALID,1005.44,VALID,0,VALID,87.8237,VALID,0,VALID,23.5284,VALID,308,VALID,0.717188,
2008-09-27, 01:37:04,VALID,1005.42,VALID,0,VALID,88.0373,VALID,0,VALID,23.5302,VALID,254,VALID,0.464453,
2008-09-27, 01:38:04,VALID,1005.4,VALID,0,VALID,87.9839,VALID,0,VALID,23.4894,VALID,341,VALID,0.846484,
2008-09-27, 01:39:04,VALID,1005.41,VALID,0,VALID,88.228,VALID,0.100563,VALID,23.5089,VALID,276,VALID,0.581641,
2008-09-27, 01:40:04,VALID,1005.35,VALID,0,VALID,88.4187,VALID,0.100563,VALID,23.4877,VALID,308,VALID,0.640234,
2008-09-27, 01:41:04,VALID,1005.34,VALID,0,VALID,88.5103,VALID,0.100563,VALID,23.4682,VALID,287,VALID,1.26055,
2008-09-27, 01:42:04,VALID,1005.31,VALID,0,VALID,88.6628,VALID,0.100563,VALID,23.47,VALID,307,VALID,0.422266,
2008-09-27, 01:43:04,VALID,1005.29,VALID,0,VALID,88.8231,VALID,0.100563,VALID,23.4487,VALID,322,VALID,0.49375,
2008-09-27, 01:44:04,VALID,1005.29,VALID,0,VALID,88.8917,VALID,0.100563,VALID,23.4682,VALID,306,VALID,0.859766,
2008-09-27, 01:45:04,VALID,1005.27,VALID,0,VALID,88.9985,VALID,0.100563,VALID,23.4293,VALID,318,VALID,0.717969,
2008-09-27, 01:46:04,VALID,1005.25,VALID,0,VALID,89.0443,VALID,0.100563,VALID,23.4098,VALID,342,VALID,0.784766,
2008-09-27, 01:47:04,VALID,1005.25,VALID,0,VALID,89.2045,VALID,0.100563,VALID,23.3904,VALID,312,VALID,0.298438,
2008-09-27, 01:48:04,VALID,1005.28,VALID,0,VALID,89.3189,VALID,0.100563,VALID,23.3709,VALID,333,VALID,0.456641,
2008-09-27, 01:49:04,VALID,1005.27,VALID,0,VALID,89.3342,VALID,0.100563,VALID,23.3514,VALID,341,VALID,0.948828,
2008-09-27, 01:50:04,VALID,1005.24,VALID,0,VALID,89.4791,VALID,0.100563,VALID,23.332,VALID,356,VALID,0.871094,
2008-09-27, 01:51:04,VALID,1005.27,VALID,0,VALID,89.5936,VALID,0.100563,VALID,23.332,VALID,263,VALID,0.714453,
2008-09-27, 01:52:04,VALID,1005.23,VALID,0,VALID,89.7614,VALID,0.100563,VALID,23.332,VALID,246,VALID,0.360156,
2008-09-27, 01:53:04,VALID,1005.22,VALID,0,VALID,89.8682,VALID,0.100563,VALID,23.3125,VALID,286,VALID,0.911719,
2008-09-27, 01:54:04,VALID,1005.18,VALID,0,VALID,89.9216,VALID,0,VALID,23.3355,VALID,302,VALID,0.614844,
2008-09-27, 01:55:04,VALID,1005.1,VALID,0,VALID,89.8835,VALID,0,VALID,23.2948,VALID,356,VALID,1.11992,
2008-09-27, 01:56:04,VALID,1005.06,VALID,0,VALID,90.0437,VALID,0,VALID,23.316,VALID,306,VALID,0.386719,
2008-09-27, 01:57:04,VALID,1005.06,VALID,0,VALID,90.0437,VALID,0,VALID,23.316,VALID,287,VALID,0.595703,
2008-09-27, 01:58:04,VALID,1005.05,VALID,0,VALID,89.9979,VALID,0,VALID,23.2966,VALID,333,VALID,1.00352,
2008-09-27, 01:59:04,VALID,1005.05,VALID,0,VALID,90.0971,VALID,0,VALID,23.2966,VALID,306,VALID,0.597266,
2008-09-27, 02:00:04,VALID,1005.05,VALID,0,VALID,90.2039,VALID,0,VALID,23.2771,VALID,259,VALID,0.378906,
2008-09-27, 02:01:04,VALID,1005.08,VALID,0,VALID,90.2802,VALID,0,VALID,23.2577,VALID,1,VALID,1.28477,
2008-09-27, 02:02:04,VALID,1005.12,VALID,0,VALID,90.4251,VALID,0,VALID,23.2559,VALID,346,VALID,1.01211,
2008-09-27, 02:03:04,VALID,1005.1,VALID,0,VALID,90.4327,VALID,0,VALID,23.2364,VALID,346,VALID,0.616406,
2008-09-27, 02:04:04,VALID,1005.09,VALID,0,VALID,90.4938,VALID,0,VALID,23.2187,VALID,348,VALID,0.958984,
2008-09-27, 02:05:04,VALID,1005.08,VALID,0,VALID,90.6006,VALID,0,VALID,23.2187,VALID,349,VALID,0,
2008-09-27, 02:06:04,VALID,1005.03,VALID,0,VALID,90.715,VALID,0,VALID,23.1975,VALID,318,VALID,0.255078,
2008-09-27, 02:07:04,VALID,1005,VALID,0,VALID,90.7989,VALID,0,VALID,23.1993,VALID,316,VALID,0.45625,
2008-09-27, 02:08:04,VALID,1004.97,VALID,0,VALID,90.8142,VALID,0,VALID,23.1586,VALID,343,VALID,0.758984,
2008-09-27, 02:09:04,VALID,1004.94,VALID,0,VALID,90.8752,VALID,0,VALID,23.1391,VALID,348,VALID,1.21289,
2008-09-27, 02:10:04,VALID,1004.91,VALID,0,VALID,90.9744,VALID,0,VALID,23.1391,VALID,351,VALID,0.65,
2008-09-27, 02:11:04,VALID,1004.89,VALID,0,VALID,91.0965,VALID,0,VALID,23.1603,VALID,334,VALID,0.333203,
2008-09-27, 02:12:04,VALID,1004.86,VALID,0,VALID,91.2033,VALID,0,VALID,23.1391,VALID,2,VALID,0.883984,
2008-09-27, 02:13:04,VALID,1004.85,VALID,0,VALID,91.2796,VALID,0,VALID,23.1197,VALID,333,VALID,0.311328,
2008-09-27, 02:14:04,VALID,1004.82,VALID,0,VALID,91.3635,VALID,0,VALID,23.1409,VALID,347,VALID,0.669141,
2008-09-27, 02:15:04,VALID,1004.81,VALID,0,VALID,91.3558,VALID,0,VALID,23.1197,VALID,346,VALID,0.3125,
2008-09-27, 02:16:04,VALID,1004.78,VALID,0,VALID,91.4321,VALID,0,VALID,23.1603,VALID,327,VALID,0.430859,
2008-09-27, 02:17:04,VALID,1004.75,VALID,0,VALID,91.5389,VALID,0,VALID,23.1603,VALID,330,VALID,0.270703,
2008-09-27, 02:18:04,VALID,1004.7,VALID,0,VALID,91.5618,VALID,0,VALID,23.1586,VALID,335,VALID,0.628125,
2008-09-27, 02:19:04,VALID,1004.69,VALID,0,VALID,91.5542,VALID,0,VALID,23.1798,VALID,309,VALID,0.253516,
2008-09-27, 02:20:04,VALID,1004.66,VALID,0,VALID,91.5008,VALID,0,VALID,23.1993,VALID,342,VALID,0.796484,
2008-09-27, 02:21:04,VALID,1004.69,VALID,0,VALID,91.4474,VALID,0,VALID,23.178,VALID,341,VALID,0.542969,
2008-09-27, 02:22:04,VALID,1004.69,VALID,0,VALID,91.4321,VALID,0,VALID,23.178,VALID,347,VALID,0.707031,
2008-09-27, 02:23:04,VALID,1004.71,VALID,0,VALID,91.4321,VALID,0,VALID,23.1798,VALID,353,VALID,0.571875,
2008-09-27, 02:24:04,VALID,1004.71,VALID,0,VALID,91.5237,VALID,0,VALID,23.1798,VALID,352,VALID,0.775391,
2008-09-27, 02:25:04,VALID,1004.73,VALID,0,VALID,91.661,VALID,0,VALID,23.1603,VALID,355,VALID,0.448828,
2008-09-27, 02:26:04,VALID,1004.72,VALID,0,VALID,91.722,VALID,0,VALID,23.1603,VALID,356,VALID,0.462109,
2008-09-27, 02:27:04,VALID,1004.76,VALID,0,VALID,91.8746,VALID,0,VALID,23.1197,VALID,356,VALID,0.522266,
2008-09-27, 02:28:04,VALID,1004.76,VALID,0,VALID,91.9585,VALID,0,VALID,23.1409,VALID,7,VALID,0.651172,
2008-09-27, 02:29:04,VALID,1004.74,VALID,0,VALID,92.0348,VALID,0,VALID,23.1214,VALID,16,VALID,0.669141,
2008-09-27, 02:30:04,VALID,1004.77,VALID,0,VALID,92.134,VALID,0,VALID,23.1002,VALID,1,VALID,0.477344,
2008-09-27, 02:31:04,VALID,1004.76,VALID,0,VALID,92.1416,VALID,0,VALID,23.1002,VALID,9,VALID,0.637891,
2008-09-27, 02:32:04,VALID,1004.79,VALID,0,VALID,92.2332,VALID,0,VALID,23.1002,VALID,8,VALID,0.436719,
2008-09-27, 02:33:04,VALID,1004.75,VALID,0,VALID,92.195,VALID,0,VALID,23.0807,VALID,23,VALID,0.548437,
2008-09-27, 02:34:04,VALID,1004.74,VALID,0,VALID,92.2179,VALID,0,VALID,23.1019,VALID,39,VALID,0.424609,
2008-09-27, 02:35:04,VALID,1004.72,VALID,0,VALID,92.2103,VALID,0.100563,VALID,23.0807,VALID,11,VALID,0.6,
2008-09-27, 02:36:04,VALID,1004.72,VALID,0,VALID,92.1492,VALID,0,VALID,23.1214,VALID,1,VALID,0.303125,
2008-09-27, 02:37:04,VALID,1004.69,VALID,0,VALID,91.9738,VALID,0,VALID,23.0807,VALID,359,VALID,0.319922,
2008-09-27, 02:38:04,VALID,1004.72,VALID,0,VALID,91.9738,VALID,0,VALID,23.0807,VALID,359,VALID,0.184766,
2008-09-27, 02:39:04,VALID,1004.71,VALID,0,VALID,91.9585,VALID,0,VALID,23.1002,VALID,1,VALID,0.271094,
2008-09-27, 02:40:04,VALID,1004.76,VALID,0,VALID,91.928,VALID,0,VALID,23.1409,VALID,5,VALID,0.285547,
2008-09-27, 02:41:04,VALID,1004.74,VALID,0,VALID,91.9433,VALID,0,VALID,23.1197,VALID,5,VALID,0.360547,
2008-09-27, 02:42:04,VALID,1004.72,VALID,0,VALID,91.6305,VALID,0.100563,VALID,23.1197,VALID,21,VALID,0.433984,
2008-09-27, 02:43:04,VALID,1004.75,VALID,0,VALID,91.7449,VALID,0,VALID,23.1391,VALID,18,VALID,0.548047,
2008-09-27, 02:44:04,VALID,1004.75,VALID,0,VALID,91.8212,VALID,0,VALID,23.1586,VALID,9,VALID,0.204297,
2008-09-27, 02:45:04,VALID,1004.77,VALID,0,VALID,91.7449,VALID,0,VALID,23.1391,VALID,9,VALID,0,
2008-09-27, 02:46:04,VALID,1004.76,VALID,0,VALID,91.8594,VALID,0,VALID,23.1197,VALID,9,VALID,0.09375,
2008-09-27, 02:47:04,VALID,1004.72,VALID,0,VALID,91.8975,VALID,0,VALID,23.1002,VALID,10,VALID,0.365234,
2008-09-27, 02:48:04,VALID,1004.7,VALID,0,VALID,91.9738,VALID,0,VALID,23.1214,VALID,10,VALID,0.0707031,
2008-09-27, 02:49:04,VALID,1004.69,VALID,0,VALID,92.0424,VALID,0,VALID,23.0807,VALID,10,VALID,0.0148437,
2008-09-27, 02:50:04,VALID,1004.66,VALID,0,VALID,92.1874,VALID,0,VALID,23.0401,VALID,10,VALID,0.217578,
2008-09-27, 02:51:04,VALID,1004.64,VALID,0,VALID,92.195,VALID,0,VALID,23.0224,VALID,11,VALID,0.164453,
2008-09-27, 02:52:04,VALID,1004.63,VALID,0,VALID,92.34,VALID,0,VALID,23.0029,VALID,11,VALID,0.766016,
2008-09-27, 02:53:04,VALID,1004.61,VALID,0,VALID,92.4239,VALID,0,VALID,22.9817,VALID,24,VALID,0.416016,
2008-09-27, 02:54:04,VALID,1004.6,VALID,0,VALID,92.3781,VALID,0,VALID,22.9834,VALID,24,VALID,0.260156,
2008-09-27, 02:55:04,VALID,1004.58,VALID,0,VALID,92.2713,VALID,0,VALID,22.9834,VALID,25,VALID,0.552734,
2008-09-27, 02:56:04,VALID,1004.56,VALID,0,VALID,92.0653,VALID,0.100563,VALID,22.964,VALID,28,VALID,0.580469,
2008-09-27, 02:57:04,VALID,1004.53,VALID,0,VALID,92.073,VALID,0,VALID,22.9834,VALID,28,VALID,0.333594,
2008-09-27, 02:58:04,VALID,1004.52,VALID,0,VALID,91.9433,VALID,0,VALID,22.9622,VALID,36,VALID,0.561719,
2008-09-27, 02:59:04,VALID,1004.51,VALID,0,VALID,91.8212,VALID,0,VALID,22.9622,VALID,36,VALID,0.0410156,
2008-09-27, 03:00:04,VALID,1004.51,VALID,0,VALID,91.8365,VALID,0.100563,VALID,22.9834,VALID,36,VALID,0.385938,
2008-09-27, 03:01:04,VALID,1004.51,VALID,0,VALID,92.073,VALID,0,VALID,23.0029,VALID,36,VALID,0.157031,
2008-09-27, 03:02:04,VALID,1004.53,VALID,0,VALID,92.2408,VALID,0,VALID,23.0029,VALID,36,VALID,0.194141,
2008-09-27, 03:03:04,VALID,1004.54,VALID,0,VALID,92.2408,VALID,0,VALID,23.0029,VALID,36,VALID,0.295703,
2008-09-27, 03:04:04,VALID,1004.55,VALID,0,VALID,92.1798,VALID,0,VALID,22.9622,VALID,25,VALID,0.503516,
2008-09-27, 03:05:04,VALID,1004.54,VALID,0,VALID,92.2255,VALID,0.100563,VALID,22.964,VALID,14,VALID,0.548828,
2008-09-27, 03:06:04,VALID,1004.53,VALID,0,VALID,92.2255,VALID,0,VALID,22.9251,VALID,2,VALID,0.721484,
2008-09-27, 03:07:04,VALID,1004.49,VALID,0,VALID,92.2027,VALID,0,VALID,22.9056,VALID,1,VALID,0.481641,
2008-09-27, 03:08:04,VALID,1004.48,VALID,0,VALID,91.8517,VALID,0,VALID,22.8472,VALID,359,VALID,1.02305,
2008-09-27, 03:09:04,VALID,1004.46,VALID,0,VALID,91.5771,VALID,0,VALID,22.8278,VALID,353,VALID,0.980859,
2008-09-27, 03:10:04,VALID,1004.46,VALID,0,VALID,91.6229,VALID,0,VALID,22.8278,VALID,287,VALID,0.433594,
2008-09-27, 03:11:04,VALID,1004.45,VALID,0,VALID,91.6305,VALID,0,VALID,22.8472,VALID,358,VALID,0.476172,
2008-09-27, 03:12:04,VALID,1004.47,VALID,0,VALID,91.3711,VALID,0,VALID,22.8278,VALID,354,VALID,1.09297,
2008-09-27, 03:13:04,VALID,1004.5,VALID,0,VALID,91.4779,VALID,0,VALID,22.7871,VALID,353,VALID,0.758984,
2008-09-27, 03:14:04,VALID,1004.51,VALID,0,VALID,91.394,VALID,0,VALID,22.8083,VALID,349,VALID,0.585938,
2008-09-27, 03:15:04,VALID,1004.51,VALID,0,VALID,91.4321,VALID,0,VALID,22.7888,VALID,352,VALID,0.384766,
2008-09-27, 03:16:04,VALID,1004.49,VALID,0,VALID,91.3635,VALID,0.100563,VALID,22.8083,VALID,21,VALID,0.530859,
2008-09-27, 03:17:04,VALID,1004.52,VALID,0,VALID,91.3101,VALID,0,VALID,22.7694,VALID,352,VALID,0.564062,
2008-09-27, 03:18:04,VALID,1004.54,VALID,0,VALID,90.9668,VALID,0,VALID,22.7499,VALID,338,VALID,0.468359,
2008-09-27, 03:19:04,VALID,1004.57,VALID,0,VALID,91.1041,VALID,0,VALID,22.7694,VALID,357,VALID,0.5125,
2008-09-27, 03:20:04,VALID,1004.6,VALID,0,VALID,90.9973,VALID,0,VALID,22.7694,VALID,24,VALID,0.538281,
2008-09-27, 03:21:04,VALID,1004.64,VALID,0,VALID,90.9363,VALID,0,VALID,22.7694,VALID,9,VALID,0.492578,
2008-09-27, 03:22:04,VALID,1004.68,VALID,0,VALID,91.0507,VALID,0,VALID,22.7694,VALID,337,VALID,0.649219,
2008-09-27, 03:23:04,VALID,1004.7,VALID,0,VALID,90.7684,VALID,0,VALID,22.7694,VALID,356,VALID,0.902344,
2008-09-27, 03:24:04,VALID,1004.7,VALID,0,VALID,90.7989,VALID,0,VALID,22.7888,VALID,353,VALID,0.281641,
2008-09-27, 03:25:04,VALID,1004.69,VALID,0,VALID,90.6006,VALID,0,VALID,22.7694,VALID,345,VALID,0.632813,
2008-09-27, 03:26:04,VALID,1004.72,VALID,0,VALID,90.776,VALID,0,VALID,22.7888,VALID,343,VALID,0.334766,
2008-09-27, 03:27:04,VALID,1004.73,VALID,0,VALID,90.8676,VALID,0,VALID,22.7888,VALID,341,VALID,0.414453,
2008-09-27, 03:28:04,VALID,1004.75,VALID,0,VALID,90.7837,VALID,0,VALID,22.7906,VALID,345,VALID,0.557813,
2008-09-27, 03:29:04,VALID,1004.76,VALID,0,VALID,90.8295,VALID,0,VALID,22.7499,VALID,345,VALID,0.518359,
2008-09-27, 03:30:04,VALID,1004.79,VALID,0,VALID,90.9134,VALID,0,VALID,22.7305,VALID,348,VALID,0.444922,
2008-09-27, 03:31:04,VALID,1004.82,VALID,0,VALID,91.2338,VALID,0,VALID,22.7305,VALID,348,VALID,0.434766,
2008-09-27, 03:32:04,VALID,1004.82,VALID,0,VALID,91.5389,VALID,0,VALID,22.7305,VALID,348,VALID,0.400391,
2008-09-27, 03:33:04,VALID,1004.85,VALID,0,VALID,91.7602,VALID,0,VALID,22.711,VALID,348,VALID,0.46875,
2008-09-27, 03:34:04,VALID,1004.9,VALID,0,VALID,91.928,VALID,0,VALID,22.6898,VALID,348,VALID,0.372266,
2008-09-27, 03:35:04,VALID,1004.93,VALID,0,VALID,92.2103,VALID,0.100563,VALID,22.6721,VALID,348,VALID,0.502734,
2008-09-27, 03:36:04,VALID,1004.96,VALID,0,VALID,92.3018,VALID,0,VALID,22.6526,VALID,348,VALID,0.557813,
2008-09-27, 03:37:04,VALID,1004.96,VALID,0,VALID,92.4391,VALID,0,VALID,22.6332,VALID,349,VALID,0.574609,
2008-09-27, 03:38:04,VALID,1005,VALID,0,VALID,92.607,VALID,0,VALID,22.5942,VALID,349,VALID,0.424219,
2008-09-27, 03:39:04,VALID,1005.06,VALID,0,VALID,92.8511,VALID,0,VALID,22.5942,VALID,349,VALID,0.224609,
2008-09-27, 03:40:04,VALID,1005.04,VALID,0,VALID,93.0876,VALID,0,VALID,22.5942,VALID,349,VALID,0.429688,
2008-09-27, 03:41:04,VALID,1005.05,VALID,0,VALID,93.2402,VALID,0,VALID,22.5942,VALID,350,VALID,0.449609,
2008-09-27, 03:42:04,VALID,1005.06,VALID,0,VALID,93.2173,VALID,0,VALID,22.5748,VALID,349,VALID,0.410937,
2008-09-27, 03:43:04,VALID,1005.1,VALID,0,VALID,93.3241,VALID,0.100563,VALID,22.5765,VALID,348,VALID,0.373047,
2008-09-27, 03:44:04,VALID,1005.1,VALID,0,VALID,93.3928,VALID,0,VALID,22.5553,VALID,352,VALID,0.892187,